Regional Weather Roundup
Issued by NWS

Home | Current Version | Previous Version | Graphics & Text | Print | Product List | Glossary On
Versions: 1 2 3 4 5 6 7 8 9 10 11 12 13 14 15 16 17 18 19 20 21 22 23 24 25 26 27 28 29 30 31 32 33 34 35 36 37 38 39 40 41 42 43 44 45 46 47 48 49 50
831
ASUS43 KLOT 200703
RWRIL

ILLINOIS REGIONAL WEATHER ROUNDUP
NATIONAL WEATHER SERVICE CHICAGO/ROMEOVILLE IL
100 AM CST MON FEB 20 2017

NOTE: "FAIR" INDICATES FEW OR NO CLOUDS BELOW 12,000 FEET WITH NO
SIGNIFICANT WEATHER AND/OR OBSTRUCTIONS TO VISIBILITY.

* THESE STATIONS ARE NOT UNDER NWS QUALITY CONTROL. THEY ALSO MAY NOT
  REPORT WEATHER SUCH AS PRECIPITATION OR FOG.

ILZ001-002-007-009-015-016-024-200800-
NORTHWEST ILLINOIS

CITY           SKY/WX    TMP DP  RH WIND       PRES   REMARKS
MOLINE         PTCLDY    53  46  77 CALM      30.00F
STERLING*      PTCLDY    46  42  86 E5        30.06S
SAVANNA*       CLOUDY    48  42  80 SE7       30.03S
$$

ILZ003-004-008-010-011-017-018-200800-
NORTH CENTRAL ILLINOIS

CITY           SKY/WX    TMP DP  RH WIND       PRES   REMARKS
ROCKFORD       CLOUDY    49  41  74 SE9       30.09S
FREEPORT*      CLOUDY    40  35  83 SE5       30.07F
ROCHELLE*      PTCLDY    43  40  89 SE8       30.08F
DE KALB*       CLOUDY    48  42  81 SE9       30.11S
PERU*          PTCLDY    48  44  85 SE9       30.09S
$$

ILZ005-006-012>014-019>023-200800-
NORTHEAST ILLINOIS

CITY           SKY/WX    TMP DP  RH WIND       PRES   REMARKS
CHICAGO-OHARE  MOCLDY    41  32  70 CALM      30.12R
CHICAGO-MIDWAY CLOUDY    50  39  66 S5        30.13R
AURORA         CLOUDY    47  40  76 SE8       30.11S
LANSING*       PTCLDY    43  41  95 CALM      30.14R
JOLIET*        PTCLDY    47  42  84 SE5       30.12S
WAUKEGAN       PTCLDY    37  32  82 E3        30.12S
DUPAGE AIRPORT PTCLDY    44  36  73 SE6       30.10F
KANKAKEE*      PTCLDY    41  39  92 CALM      30.13F
WHEELING       CLOUDY    39  30  70 CALM      30.14R
MORRIS*        PTCLDY    46  43  87 CALM      30.10S
ROMEOVILLE*    CLOUDY    45  42  90 SE7       30.12S
NORTHERLY ISL    N/A     41  34  76 CALM        N/A
$$

LMZ740>746-200800-
SOUTHERN LAKE MICHIGAN

STATION/POSITION SKY/WX   TEMP    WIND        PRES    VSBY  WAVE
                          AIR SEA DIR/SP/G                  HT/PER
                          (F)     (DEG/KT/KT) (MB)    (MI)  (FT/S)
HARRISON CRIB              44     170/  6/  7   N/A
BURNHAM HARBOR             40     160/  2/  3   N/A
CALUMET HARBOR             43     150/  3/  4 1019.6R
BURNS HARBOR               54     140/  6/ 10 1021.0S
MICHIGAN CITY              50     110/  6/  6   N/A
$$

ILZ025>027-034>036-040-047-049-050-058-095>099-200800-
WEST-CENTRAL ILLINOIS

CITY           SKY/WX    TMP DP  RH WIND       PRES   REMARKS
QUINCY         CLOUDY    54  50  86 SE8       29.99F
GALESBURG*     MOCLDY    52  48  88 SE7         N/A
MACOMB*        PTCLDY    51  48  92 SE7       30.04S
JACKSONVILLE*  CLOUDY    54  51  90 SE10      30.04F
PITTSFIELD*    CLOUDY    53  51  90 SE6       30.03S
$$

ILZ028>032-037-038-041>044-048-051>054-059>061-200800-
CENTRAL ILLINOIS

CITY           SKY/WX    TMP DP  RH WIND       PRES   REMARKS
PONTIAC        PTCLDY    44  44  99 SE6       30.11R FOG
BLOOMINGTON    CLOUDY    47  45  93 S9        30.10S FOG
DECATUR        FOG       48  48 100 S10       30.11R VSB 1/4
PEORIA         CLOUDY    52  49  89 SE8       30.06F
LACON*         PTCLDY    49  47  95 SE5       30.06F FOG
LINCOLN*       LGT RAIN  48  48 100 S12       30.08F VSB 1/2
SPRINGFIELD    CLOUDY    51  50  96 SE13      30.07S FOG
TAYLORVILLE    FOG       49  49 100 SE12      30.09S VSB 1/2
$$

ILZ033-039-045-046-055>057-062-063-200800-
EAST-CENTRAL ILLINOIS

CITY           SKY/WX    TMP DP  RH WIND       PRES   REMARKS
CHAMPAIGN      FOG       48  47  96 S9        30.12S VSB 1/4
RANTOUL*       PTCLDY    46  46  99 SE7       30.12S FOG
MATTOON        FOG       49  49 100 S12       30.12R VSB 1/4
PARIS*         MOCLDY    45  45 100 SE6       30.14S FOG
$$

ILZ079-100>102-200800-
SOUTHWEST ILLINOIS

CITY           SKY/WX    TMP DP  RH WIND       PRES   REMARKS
ALTON          CLOUDY    49  49  97 E6        30.06F FOG
CAHOKIA*       CLOUDY    54  49  83 SE7       30.05F
SPARTA*        PTCLDY    51  50  97 SE7       30.08F FOG
$$

ILZ064>066-069>071-074>076-080>082-084>086-088>090-092>094-200800-
SOUTH-CENTRAL ILLINOIS

CITY           SKY/WX    TMP DP  RH WIND       PRES   REMARKS
CARBONDALE     PTCLDY    48  48 100 E5        30.08F FOG
CAIRO*         FOG       45  45 100 CALM      30.09F VSB<1/4
EFFINGHAM*     FOG       50  50 100 E9        30.14S VSB 3/4
MARION         PTCLDY    50  50 100 E5        30.10F FOG
MT. VERNON     PTCLDY    48  48 100 E5        30.11F FOG
CENTRALIA*     CLOUDY    49  49 100 E6        30.08F FOG
SALEM*         FOG       52  50  94 SE5       30.11S VSB 1/2
METROPOLIS*    RAIN      46  46  99 CALM      30.10F VSB<1/4
$$

ILZ067-068-072-073-078-083-087-091-200800-
SOUTHEAST ILLINOIS

CITY           SKY/WX    TMP DP  RH WIND       PRES   REMARKS
LAWRENCEVILLE  FOG       42  41  96 E5        30.14S VSB 1/4
FLORA*         FOG       48  48  99 CALM      30.13S VSB 1/4
FAIRFIELD*     FOG       45  45 100 CALM      30.12S VSB<1/4
HARRISBURG*    PTCLDY    48  48 100 CALM      30.12S FOG
ROBINSON*      FOG       39  39 100 CALM      30.15S VSB 1/4
CARMI*         FOG       43  43 100 SE5       30.13R VSB 1/4
$$

ABBREVIATIONS USED IN REMARKS
   TC - TEMPERATURE IN CELSIUS
  WCI - WIND CHILL INDEX
   HX - HEAT INDEX
  VSB - VISIBILITY
$$





USA.gov is the U.S. government's official web portal to all federal, state and local government web resources and services.